Sandakan Airport
WBKS : now visible

Airfield :











YOU CAN JOIN US ON...

 
LOGIN :

Register | Disclaimer

   EN    FR    IT 

 









Legend :    VFR   Marginal VFR   IFR   Intensive IFR   Very Intensive IFR
Visi :
Ceiling :
>= 8 km
>= 3000ft
5 to 8 km
1000 to 3000 ft
1500m to 5 km
500 to 1000 ft
800 to 1500m
200 to 500 ft
< 800m
< 200 ft
Symbols :   Thunderstorms  Fog  Heavy snow  Heavy precipitations  Wind > 20 kt






- Airport Elevation : 46 ft
- IATA code : SDK


WBKS - Sandakan

CURRENT METAR :
  • 170700Z 02007KT 330V060 9999 FEW015 30/25 Q1006

EXPIRED METARs :
  • 170600Z 03007KT 350V070 9999 FEW015 30/25 Q1007
  • 170500Z 03006KT 340V060 9999 FEW015 29/25 Q1008

TAF TAF WBKS
Valid from the 17 at 06:00 until the 18 at 06:00 UTC


170500Z 1706/1806 06007KT 9999 FEW015
TEMPO 1714/1718 20008KT 6000 TSRA FEW010 FEW016CB SCT040
WBFC FIR / Asia



MET'MAP, your aeronautical weather chart ! - Copyright ORBIFLY December 2007 - Disclaimer

ORBIFLY MET'MAP TEAM :

Programming & Development : Alexandra Zaïnal
Concept & original design : Baudouin d'Aumeries
Assistance for programming : Marc-Olivier Méhu
Technical & hardware support : Manuel Goepfert

Contact : metmap@orbifly.com




SOURCES & CREDITS :

   NOAA       Earth
Advisory